Location: Ballard
(38.3614°N, 94.1431°W)
Time: 18:39:31
(UTC-05:00)

Hubble Space Telescope - Pass Details

Date: 29 March 2019
Orbit: 536 x 540 km, 28.5° (Epoch: 13 October)

Event Time Altitude Azimuth Distance (km) Brightness Sun altitude
Rises 20:41:32 0° 248° (WSW) 2,673 5.2 -13.3°
Reaches altitude 10° 20:44:13 10° 231° (SW) 1,783 3.9 -13.8°
Maximum altitude 20:47:18 20° 183° (S) 1,258 2.5 -14.4°
Enters shadow 20:48:57 16° 152° (SSE) 1,430 2.5 -14.7°
